Location: Barcelona
(41.3830°N, 2.1830°E)
Time: 14:03:50
(UTC+02:00)

ISS - Pass Details

Date: 31 March 2020
Orbit: 416 x 423 km, 51.6° (Epoch: 02 April)

Event Time Altitude Azimuth Distance (km) Brightness Sun altitude
Rises 21:44:25 0° 309° (NW) 2,361 1.5 -16.9°
Reaches altitude 10° 21:46:44 10° 323° (NW) 1,496 -0.1 -17.3°
Maximum altitude 21:49:39 27° 23° (NNE) 850 -2.2 -17.8°
Enters shadow 21:50:15 25° 42° (NE) 888 -2.3 -17.9°
